Погода в Юйлине

Китай     22°37′22″N   110°09′13″E
темп.,
°C
ветер,
м/с
пор.,
м/с
влажн.,
%
обл.,
%
осадки,
мм/ч
давл.,
гПа
погр.,
м
17 сентября, пт
пт1723:00+24зсз118761 0.0 101011
02:00+24юз008597 0.0 100911
05:00+23юз008526 0.0 100911
08:00+25ююз008188 0.0 101084
11:00+29зсз117182 0.0 1011512
14:00+28зсз2282100 0.0 1009212
17:00+26ссз018582 0.0 100822
20:00+25з00855 0.1 100811
18 сентября, сб
сб1823:00+24юз00865 0.0 101011
02:00+24ююв118932 0.9 100911
05:00+24юв11915 0.6 100911
08:00+26вюв118711 1.6 1011163
11:00+30ю237127 0.1 10111053
14:00+33ююз336063 0.2 10081724
17:00+29ююв337479 0.1 100759
20:00+26ююв498817 0.4 1010238
19 сентября, вс
вс1923:00+25ююв23935 0.1 101183
02:00+24юв119610 0.1 101019
05:00+23юв11964 0.0 101011
08:00+25юв129131 0.0 1011226
11:00+30ю236959 0.1 10111239
14:00+31ююз236491 0.3 10091190
17:00+30ююв347512 1.3 1008596
20:00+26ююв22865 1.8 100917
20 сентября, пн
пн2023:00+25ю229163 0.0 101115
02:00+24ю119381 0.0 101013
05:00+24ю1195100 0.0 100911
08:00+25зсз1189100 0.0 1011158
11:00+29сз337292 0.1 1011974
14:00+30сз336796 0.4 10091058
17:00+30ссз227099 0.2 1008834
20:00+26ссз2284100 0.2 100951
21 сентября, вт
вт2123:00+25сз1187100 0.0 101016
02:00+24ссз118967 0.0 100911
05:00+24с11925 0.0 100912
08:00+26св12855 0.0 1010201
11:00+30ссв227027 0.0 1010894
14:00+33с115829 0.6 10071536
17:00+30с237348 2.1 1006105
20:00+26ю3384100 5.9 100847